Time,TemperatureF,DewpointF,PressureIn,WindDirection,WindDirectionDegrees,WindSpeedMPH,WindSpeedGustMPH,Humidity,HourlyPrecipIn,Conditions,Clouds,dailyrainin,SolarRadiationWatts/m^2,SoftwareType,DateUTC
2013-05-03 00:00:00,48.5,45.4,29.99,SE,130,2.3,2.3,89,0.00,BKN,OVC,0.01,0.0,WeatherDisplay:10.37,2013-05-02 23:00:00,
2013-05-03 00:05:00,48.5,45.4,29.99,SE,128,3.5,3.5,89,0.00,-RA,OVC,0.00,0.0,WeatherDisplay:10.37,2013-05-02 23:05:00,
2013-05-03 00:10:00,48.6,45.5,29.99,East,100,1.0,4.0,89,0.00,-RA,OVC,0.00,0.0,WeatherDisplay:10.37,2013-05-02 23:10:00,
2013-05-03 00:15:00,48.7,45.6,29.99,ENE,58,0.0,3.0,89,0.00,-RA,OVC,0.00,0.0,WeatherDisplay:10.37,2013-05-02 23:15:00,
2013-05-03 00:20:00,48.8,45.7,29.98,NNE,20,2.3,2.3,89,0.00,-RA,OVC,0.00,0.0,WeatherDisplay:10.37,2013-05-02 23:20:00,
2013-05-03 00:25:00,48.8,45.4,29.98,NNW,348,1.0,3.0,88,0.00,-RA,OVC,0.00,0.0,WeatherDisplay:10.37,2013-05-02 23:25:00,
2013-05-03 00:30:00,48.9,45.5,29.98,SE,125,1.0,2.0,88,0.00,-RA,OVC,0.00,0.0,WeatherDisplay:10.37,2013-05-02 23:30:00,
2013-05-03 00:35:00,48.9,45.5,29.98,ESE,107,3.5,3.5,88,0.00,SCT,OVC,0.00,0.0,WeatherDisplay:10.37,2013-05-02 23:35:00,
2013-05-03 00:40:00,48.9,45.2,29.98,ESE,103,2.0,2.0,87,0.00,SCT,OVC,0.00,0.0,WeatherDisplay:10.37,2013-05-02 23:40:00,
2013-05-03 00:45:00,48.9,45.2,29.98,East,82,1.2,1.2,87,0.00,SCT,OVC,0.00,0.0,WeatherDisplay:10.37,2013-05-02 23:45:00,
2013-05-03 00:50:00,48.9,45.2,29.98,NE,39,3.5,3.5,87,0.00,SCT,OVC,0.00,0.0,WeatherDisplay:10.37,2013-05-02 23:50:00,
2013-05-03 00:55:00,48.9,45.2,29.98,ESE,120,1.0,3.0,87,0.00,SCT,OVC,0.00,0.0,WeatherDisplay:10.37,2013-05-02 23:55:00,
2013-05-03 01:00:00,48.8,44.8,29.98,North,352,3.5,3.5,86,0.00,SCT,OVC,0.00,0.0,WeatherDisplay:10.37,2013-05-03 00:00:00,
2013-05-03 01:05:00,48.8,44.8,29.98,ENE,59,1.0,3.0,86,0.00,BKN,OVC,0.00,0.0,WeatherDisplay:10.37,2013-05-03 00:05:00,
2013-05-03 01:10:00,48.8,44.8,29.97,North,349,4.6,4.6,86,0.00,BKN,OVC,0.00,0.0,WeatherDisplay:10.37,2013-05-03 00:10:00,
2013-05-03 01:15:00,48.8,44.8,29.97,NNW,333,3.5,3.5,86,0.00,BKN,OVC,0.00,0.0,WeatherDisplay:10.37,2013-05-03 00:15:00,
2013-05-03 01:20:00,48.8,44.8,29.97,NE,40,1.0,3.0,86,0.00,BKN,OVC,0.00,0.0,WeatherDisplay:10.37,2013-05-03 00:20:00,
2013-05-03 01:25:00,48.9,44.6,29.97,NE,54,1.0,7.0,85,0.00,BKN,OVC,0.00,0.0,WeatherDisplay:10.37,2013-05-03 00:25:00,
2013-05-03 01:30:00,48.9,44.6,29.97,WSW,257,3.5,3.5,85,0.00,BKN,OVC,0.00,0.0,WeatherDisplay:10.37,2013-05-03 00:30:00,
2013-05-03 01:35:00,48.9,44.6,29.97,SE,124,3.5,3.5,85,0.00,BKN,OVC,0.00,0.0,WeatherDisplay:10.37,2013-05-03 00:35:00,
2013-05-03 01:40:00,48.9,44.6,29.96,North,352,3.0,3.0,85,0.00,BKN,OVC,0.00,0.0,WeatherDisplay:10.37,2013-05-03 00:40:00,
2013-05-03 01:45:00,49.0,44.7,29.96,NNW,346,2.3,2.3,85,0.00,BKN,OVC,0.00,0.0,WeatherDisplay:10.37,2013-05-03 00:45:00,
2013-05-03 01:50:00,48.9,44.6,29.96,ENE,57,1.0,4.0,85,0.00,BKN,OVC,0.00,0.0,WeatherDisplay:10.37,2013-05-03 00:50:00,
2013-05-03 01:55:00,48.9,44.6,29.96,SSE,154,2.3,2.3,85,0.00,BKN,OVC,0.00,0.0,WeatherDisplay:10.37,2013-05-03 00:55:00,
2013-05-03 02:00:00,48.9,44.6,29.95,ESE,114,8.1,8.1,85,0.00,BKN,OVC,0.00,0.0,WeatherDisplay:10.37,2013-05-03 01:00:00,
2013-05-03 02:05:00,48.9,44.6,29.96,ENE,60,0.0,5.0,85,0.00,CLR,OVC,0.00,0.0,WeatherDisplay:10.37,2013-05-03 01:05:00,
2013-05-03 02:10:00,49.0,44.7,29.95,SE,125,2.3,2.3,85,0.00,CLR,OVC,0.00,0.0,WeatherDisplay:10.37,2013-05-03 01:10:00,
2013-05-03 02:15:00,48.9,44.6,29.95,East,85,1.0,10.0,85,0.00,CLR,OVC,0.00,0.0,WeatherDisplay:10.37,2013-05-03 01:15:00,
2013-05-03 02:20:00,48.9,44.6,29.95,NNW,346,1.2,1.2,85,0.00,CLR,OVC,0.00,0.0,WeatherDisplay:10.37,2013-05-03 01:20:00,
2013-05-03 02:25:00,48.9,44.6,29.95,NNE,15,1.0,10.0,85,0.00,CLR,OVC,0.00,0.0,WeatherDisplay:10.37,2013-05-03 01:25:00,
2013-05-03 02:30:00,48.9,44.6,29.94,North,356,1.2,1.2,85,0.00,CLR,OVC,0.00,0.0,WeatherDisplay:10.37,2013-05-03 01:30:00,
2013-05-03 02:35:00,49.0,44.7,29.94,ENE,68,3.5,3.5,85,0.00,SCT,OVC,0.00,0.0,WeatherDisplay:10.37,2013-05-03 01:35:00,
2013-05-03 02:40:00,48.9,44.9,29.95,NW,312,2.3,2.3,86,0.00,SCT,OVC,0.00,0.0,WeatherDisplay:10.37,2013-05-03 01:40:00,
2013-05-03 02:45:00,48.9,44.9,29.94,ENE,58,1.0,10.0,86,0.00,SCT,OVC,0.00,0.0,WeatherDisplay:10.37,2013-05-03 01:45:00,
2013-05-03 02:50:00,48.9,44.9,29.94,SE,124,3.5,3.5,86,0.00,SCT,OVC,0.00,0.0,WeatherDisplay:10.37,2013-05-03 01:50:00,
2013-05-03 02:55:00,49.0,44.7,29.94,ENE,74,1.0,10.0,85,0.00,SCT,OVC,0.00,0.0,WeatherDisplay:10.37,2013-05-03 01:55:00,
2013-05-03 03:00:00,49.0,45.0,29.94,NE,44,3.5,3.5,86,0.00,SCT,OVC,0.00,0.0,WeatherDisplay:10.37,2013-05-03 02:00:00,
2013-05-03 03:05:00,49.0,44.7,29.93,South,169,3.5,3.5,85,0.00,SCT,OVC,0.00,0.0,WeatherDisplay:10.37,2013-05-03 02:05:00,
2013-05-03 03:10:00,49.0,44.7,29.93,North,353,3.0,3.0,85,0.00,SCT,OVC,0.00,0.0,WeatherDisplay:10.37,2013-05-03 02:10:00,
2013-05-03 03:15:00,49.0,44.7,29.93,SSE,158,3.5,3.5,85,0.00,SCT,OVC,0.00,0.0,WeatherDisplay:10.37,2013-05-03 02:15:00,
2013-05-03 03:20:00,49.1,44.7,29.93,ENE,68,1.0,10.0,85,0.00,SCT,OVC,0.00,0.0,WeatherDisplay:10.37,2013-05-03 02:20:00,
2013-05-03 03:25:00,49.1,44.8,29.93,East,87,1.0,10.0,85,0.00,SCT,OVC,0.00,0.0,WeatherDisplay:10.37,2013-05-03 02:25:00,
2013-05-03 03:30:00,49.1,44.8,29.93,NNE,15,2.3,2.3,85,0.00,SCT,OVC,0.00,0.0,WeatherDisplay:10.37,2013-05-03 02:30:00,
2013-05-03 03:35:00,49.1,44.8,29.93,East,83,2.0,10.0,85,0.00,CLR,OVC,0.00,0.0,WeatherDisplay:10.37,2013-05-03 02:35:00,
2013-05-03 03:40:00,49.2,44.9,29.92,NE,56,3.5,3.5,85,0.00,CLR,OVC,0.00,0.0,WeatherDisplay:10.37,2013-05-03 02:40:00,
2013-05-03 03:45:00,49.2,44.9,29.92,NE,51,5.8,5.8,85,0.00,CLR,OVC,0.00,0.0,WeatherDisplay:10.37,2013-05-03 02:45:00,
2013-05-03 03:50:00,49.2,44.9,29.92,NNE,33,1.0,10.0,85,0.00,CLR,OVC,0.00,0.0,WeatherDisplay:10.37,2013-05-03 02:50:00,
2013-05-03 03:55:00,49.2,44.9,29.92,ENE,75,1.0,10.0,85,0.00,CLR,OVC,0.00,0.0,WeatherDisplay:10.37,2013-05-03 02:55:00,
2013-05-03 04:00:00,49.1,44.8,29.92,ESE,121,2.3,2.3,85,0.00,CLR,OVC,0.00,0.0,WeatherDisplay:10.37,2013-05-03 03:00:00,
2013-05-03 04:05:00,49.2,44.9,29.92,ENE,70,1.0,5.0,85,0.00,FEW,OVC,0.00,0.0,WeatherDisplay:10.37,2013-05-03 03:05:00,
2013-05-03 04:10:00,49.2,44.9,29.92,NNE,28,2.0,10.0,85,0.00,FEW,OVC,0.00,0.0,WeatherDisplay:10.37,2013-05-03 03:10:00,
2013-05-03 04:15:00,49.2,44.9,29.92,NNE,20,3.5,3.5,85,0.00,FEW,OVC,0.00,0.0,WeatherDisplay:10.37,2013-05-03 03:15:00,
2013-05-03 04:20:00,49.3,45.0,29.92,NE,49,1.0,10.0,85,0.00,FEW,OVC,0.00,0.0,WeatherDisplay:10.37,2013-05-03 03:20:00,
2013-05-03 04:25:00,49.3,45.0,29.92,NE,56,3.5,3.5,85,0.00,FEW,OVC,0.00,0.0,WeatherDisplay:10.37,2013-05-03 03:25:00,
2013-05-03 04:30:00,49.3,45.0,29.91,NNE,17,2.3,2.8,85,0.00,FEW,OVC,0.00,0.0,WeatherDisplay:10.37,2013-05-03 03:30:00,
2013-05-03 04:35:00,49.2,45.2,29.91,NW,304,1.0,10.0,86,0.00,SCT,OVC,0.00,0.0,WeatherDisplay:10.37,2013-05-03 03:35:00,
2013-05-03 04:40:00,49.2,45.2,29.91,ESE,106,2.3,2.3,86,0.00,SCT,OVC,0.00,0.0,WeatherDisplay:10.37,2013-05-03 03:40:00,
2013-05-03 04:45:00,49.2,45.2,29.91,NE,51,2.0,10.0,86,0.00,SCT,OVC,0.00,0.0,WeatherDisplay:10.37,2013-05-03 03:45:00,
2013-05-03 04:50:00,49.2,44.9,29.91,ENE,66,1.0,10.0,85,0.00,SCT,OVC,0.00,0.0,WeatherDisplay:10.37,2013-05-03 03:50:00,
2013-05-03 04:55:00,49.2,44.9,29.91,SE,127,1.2,1.2,85,0.00,SCT,OVC,0.00,0.0,WeatherDisplay:10.37,2013-05-03 03:55:00,
2013-05-03 05:00:00,49.2,45.2,29.91,ESE,110,1.0,12.0,86,0.00,SCT,OVC,0.00,0.0,WeatherDisplay:10.37,2013-05-03 04:00:00,
2013-05-03 05:01:00,49.2,45.2,29.91,SSW,193,3.5,3.5,86,0.00,SCT,OVC,0.00,0.0,WeatherDisplay:10.37,2013-05-03 04:01:00,
2013-05-03 05:06:00,49.2,44.9,29.91,North,4,6.9,6.9,85,0.00,BKN,OVC,0.00,0.0,WeatherDisplay:10.37,2013-05-03 04:06:00,
2013-05-03 05:11:00,49.2,44.9,29.91,East,84,3.5,3.5,85,0.00,BKN,OVC,0.00,0.0,WeatherDisplay:10.37,2013-05-03 04:11:00,
2013-05-03 05:16:00,49.2,44.9,29.91,WNW,284,5.8,5.8,85,0.00,BKN,OVC,0.00,0.0,WeatherDisplay:10.37,2013-05-03 04:16:00,
2013-05-03 05:21:00,49.2,44.9,29.90,NE,49,3.5,3.5,85,0.00,BKN,OVC,0.00,0.0,WeatherDisplay:10.37,2013-05-03 04:21:00,
2013-05-03 05:26:00,49.1,45.1,29.90,West,273,3.5,3.5,86,0.00,BKN,OVC,0.00,0.0,WeatherDisplay:10.37,2013-05-03 04:26:00,
2013-05-03 05:31:00,49.2,44.9,29.90,South,181,3.5,3.5,85,0.00,BKN,OVC,0.00,0.0,WeatherDisplay:10.37,2013-05-03 04:31:00,
2013-05-03 05:36:00,49.2,44.9,29.90,ENE,61,3.5,3.5,85,0.00,BKN,OVC,0.00,0.0,WeatherDisplay:10.37,2013-05-03 04:36:00,
2013-05-03 05:41:00,49.2,45.2,29.90,NW,312,2.3,2.3,86,0.00,BKN,OVC,0.00,0.0,WeatherDisplay:10.37,2013-05-03 04:41:00,
2013-05-03 05:46:00,49.1,45.1,29.90,ENE,63,1.2,1.2,86,0.00,BKN,OVC,0.00,0.0,WeatherDisplay:10.37,2013-05-03 04:46:00,
2013-05-03 05:51:00,49.1,45.1,29.90,West,270,3.5,3.5,86,0.00,BKN,OVC,0.00,0.0,WeatherDisplay:10.37,2013-05-03 04:51:00,
2013-05-03 05:56:00,49.2,45.2,29.90,ESE,118,3.5,3.5,86,0.00,BKN,OVC,0.00,0.0,WeatherDisplay:10.37,2013-05-03 04:56:00,
2013-05-03 06:01:00,49.1,45.1,29.90,SE,124,2.3,2.3,86,0.00,BKN,OVC,0.00,0.0,WeatherDisplay:10.37,2013-05-03 05:01:00,
2013-05-03 06:06:00,49.1,45.1,29.90,North,349,1.2,1.2,86,0.00,BKN,OVC,0.00,0.0,WeatherDisplay:10.37,2013-05-03 05:06:00,
2013-05-03 06:11:00,49.1,45.1,29.91,NNE,25,2.3,2.3,86,0.00,BKN,OVC,0.00,0.0,WeatherDisplay:10.37,2013-05-03 05:11:00,
2013-05-03 06:16:00,49.1,45.1,29.91,ENE,75,2.3,2.3,86,0.00,OVC,,0.00,0.0,WeatherDisplay:10.37,2013-05-03 05:16:00,
2013-05-03 06:21:00,49.0,45.0,29.91,SE,131,2.3,2.3,86,0.00,OVC,,0.00,0.0,WeatherDisplay:10.37,2013-05-03 05:21:00,
2013-05-03 06:26:00,49.0,45.0,29.91,NNE,15,3.5,3.5,86,0.00,OVC,,0.00,0.0,WeatherDisplay:10.37,2013-05-03 05:26:00,
2013-05-03 06:31:00,49.0,45.3,29.91,SSE,154,2.3,2.3,87,0.00,BKN,OVC,0.00,0.0,WeatherDisplay:10.37,2013-05-03 05:31:00,
2013-05-03 06:37:00,49.0,45.3,29.91,South,183,3.0,3.0,87,0.00,BKN,OVC,0.00,0.0,WeatherDisplay:10.37,2013-05-03 05:37:00,
2013-05-03 06:42:00,49.0,45.3,29.91,NNE,26,3.5,3.5,87,0.00,BKN,OVC,0.00,0.0,WeatherDisplay:10.37,2013-05-03 05:42:00,
2013-05-03 06:47:00,48.9,45.2,29.91,NNW,328,2.3,2.3,87,0.00,BKN,OVC,0.00,0.0,WeatherDisplay:10.37,2013-05-03 05:47:00,
2013-05-03 06:52:00,48.9,45.2,29.91,SE,136,1.2,1.2,87,0.00,BKN,OVC,0.00,0.0,WeatherDisplay:10.37,2013-05-03 05:52:00,
2013-05-03 06:57:00,49.0,45.3,29.91,East,89,2.3,2.3,87,0.00,BKN,OVC,0.00,0.0,WeatherDisplay:10.37,2013-05-03 05:57:00,
2013-05-03 07:02:00,49.0,45.3,29.91,NNE,19,2.3,2.3,87,0.00,-RA,OVC,0.00,0.0,WeatherDisplay:10.37,2013-05-03 06:02:00,
2013-05-03 07:07:00,49.1,45.1,29.91,SSE,150,1.2,1.2,86,0.00,-RA,OVC,0.00,0.0,WeatherDisplay:10.37,2013-05-03 06:07:00,
2013-05-03 07:12:00,49.2,45.2,29.91,ESE,109,5.8,5.8,86,0.00,-RA,OVC,0.00,0.0,WeatherDisplay:10.37,2013-05-03 06:12:00,
2013-05-03 07:17:00,49.2,45.2,29.91,ESE,118,2.3,2.3,86,0.00,-RA,OVC,0.00,0.0,WeatherDisplay:10.37,2013-05-03 06:17:00,
2013-05-03 07:22:00,49.3,45.6,29.91,NNE,30,4.6,4.6,87,0.00,-RA,OVC,0.00,0.0,WeatherDisplay:10.37,2013-05-03 06:22:00,
2013-05-03 07:27:00,49.4,45.7,29.91,NNE,27,3.5,3.5,87,0.00,-RA,OVC,0.00,0.0,WeatherDisplay:10.37,2013-05-03 06:27:00,
2013-05-03 07:32:00,49.5,45.8,29.91,NW,323,1.2,1.2,87,0.00,SCT,OVC,0.00,0.0,WeatherDisplay:10.37,2013-05-03 06:32:00,
2013-05-03 07:37:00,49.6,45.9,29.91,NW,326,2.3,2.3,87,0.00,SCT,OVC,0.00,0.0,WeatherDisplay:10.37,2013-05-03 06:37:00,
2013-05-03 07:42:00,49.6,45.9,29.91,East,86,3.5,3.5,87,0.00,SCT,OVC,0.00,0.0,WeatherDisplay:10.37,2013-05-03 06:42:00,
2013-05-03 07:47:00,49.7,46.0,29.91,North,353,2.3,2.3,87,0.00,SCT,OVC,0.00,0.0,WeatherDisplay:10.37,2013-05-03 06:47:00,
2013-05-03 07:52:00,49.8,46.1,29.91,NW,317,2.3,2.3,87,0.00,SCT,OVC,0.00,0.0,WeatherDisplay:10.37,2013-05-03 06:52:00,
2013-05-03 07:57:00,49.8,46.1,29.91,ESE,111,3.5,3.5,87,0.00,SCT,OVC,0.00,0.0,WeatherDisplay:10.37,2013-05-03 06:57:00,
2013-05-03 08:02:00,49.7,46.0,29.91,North,8,4.6,4.6,87,0.00,SCT,OVC,0.00,0.0,WeatherDisplay:10.37,2013-05-03 07:02:00,
2013-05-03 08:07:00,49.7,46.3,29.91,SSW,195,2.3,2.3,88,0.00,SCT,OVC,0.00,0.0,WeatherDisplay:10.37,2013-05-03 07:07:00,
2013-05-03 08:12:00,49.8,46.4,29.91,South,184,3.5,3.5,88,0.00,SCT,OVC,0.00,0.0,WeatherDisplay:10.37,2013-05-03 07:12:00,
2013-05-03 08:17:00,50.0,46.6,29.91,ESE,111,2.3,2.3,88,0.00,SCT,OVC,0.00,0.0,WeatherDisplay:10.37,2013-05-03 07:17:00,
2013-05-03 08:22:00,50.1,46.4,29.91,ENE,63,3.5,3.5,87,0.00,SCT,OVC,0.00,0.0,WeatherDisplay:10.37,2013-05-03 07:22:00,
2013-05-03 08:27:00,50.2,46.5,29.90,NE,51,2.3,2.3,87,0.00,SCT,OVC,0.00,0.0,WeatherDisplay:10.37,2013-05-03 07:27:00,
2013-05-03 08:32:00,50.2,46.5,29.90,WSW,255,1.2,1.2,87,0.00,-RA,OVC,0.00,0.0,WeatherDisplay:10.37,2013-05-03 07:32:00,
2013-05-03 08:37:00,50.2,46.5,29.91,NNE,19,1.2,1.2,87,0.00,-RA,OVC,0.00,0.0,WeatherDisplay:10.37,2013-05-03 07:37:00,
2013-05-03 08:42:00,50.0,46.3,29.91,West,271,1.2,1.2,87,0.00,-RA,OVC,0.00,0.0,WeatherDisplay:10.37,2013-05-03 07:42:00,
2013-05-03 08:47:00,49.9,46.5,29.90,ESE,103,1.2,1.2,88,0.01,-RA,OVC,0.01,0.0,WeatherDisplay:10.37,2013-05-03 07:47:00,
2013-05-03 08:52:00,49.9,46.5,29.91,NE,37,2.3,2.3,88,0.01,-RA,OVC,0.01,0.0,WeatherDisplay:10.37,2013-05-03 07:52:00,
2013-05-03 08:57:00,49.9,46.8,29.91,North,6,1.2,1.2,89,0.01,-RA,OVC,0.01,0.0,WeatherDisplay:10.37,2013-05-03 07:57:00,
2013-05-03 09:02:00,49.8,46.7,29.91,NNW,341,2.3,2.3,89,0.01,-RA,OVC,0.01,0.0,WeatherDisplay:10.37,2013-05-03 08:02:00,
2013-05-03 09:07:00,49.9,46.8,29.91,NNW,339,2.0,2.0,89,0.01,-RA,OVC,0.01,0.0,WeatherDisplay:10.37,2013-05-03 08:07:00,
2013-05-03 09:12:00,50.0,46.9,29.90,NW,311,1.2,1.2,89,0.01,-RA,OVC,0.01,0.0,WeatherDisplay:10.37,2013-05-03 08:12:00,
2013-05-03 09:17:00,50.0,46.6,29.90,WNW,300,2.3,2.3,88,0.01,-RA,OVC,0.01,0.0,WeatherDisplay:10.37,2013-05-03 08:17:00,
2013-05-03 09:22:00,50.2,47.1,29.90,NW,315,0.0,0.2,89,0.01,-RA,OVC,0.01,0.0,WeatherDisplay:10.37,2013-05-03 08:22:00,
2013-05-03 09:27:00,50.3,46.6,29.90,NNE,15,2.3,0.0,87,0.01,-RA,OVC,0.01,0.0,WeatherDisplay:10.37,2013-05-03 08:27:00,
2013-05-03 09:32:00,50.3,46.3,29.90,West,278,3.5,3.5,86,0.01,-RA,OVC,0.01,0.0,WeatherDisplay:10.37,2013-05-03 08:32:00,
2013-05-03 09:37:00,50.5,46.5,29.90,NE,49,2.3,2.3,86,0.01,-RA,OVC,0.01,0.0,WeatherDisplay:10.37,2013-05-03 08:37:00,
2013-05-03 09:42:00,50.6,46.3,29.90,NNW,343,1.2,1.2,85,0.01,-RA,OVC,0.01,0.0,WeatherDisplay:10.37,2013-05-03 08:42:00,
2013-05-03 09:47:00,50.8,46.8,29.90,ENE,58,1.2,1.2,86,0.00,-RA,OVC,0.01,0.0,WeatherDisplay:10.37,2013-05-03 08:47:00,
2013-05-03 09:52:00,51.0,47.0,29.90,NE,43,3.5,3.5,86,0.00,-RA,OVC,0.01,0.0,WeatherDisplay:10.37,2013-05-03 08:52:00,
2013-05-03 09:57:00,51.2,47.2,29.90,ESE,122,2.0,2.0,86,0.00,-RA,OVC,0.01,0.0,WeatherDisplay:10.37,2013-05-03 08:57:00,
2013-05-03 10:02:00,51.3,46.9,29.90,SE,142,2.3,2.3,85,0.00,-RA,OVC,0.01,0.0,WeatherDisplay:10.37,2013-05-03 09:02:00,
2013-05-03 10:07:00,51.3,46.6,29.90,SE,134,3.5,3.5,84,0.00,-RA,OVC,0.01,0.0,WeatherDisplay:10.37,2013-05-03 09:07:00,
2013-05-03 10:12:00,51.3,46.6,29.90,NNW,347,5.8,5.8,84,0.00,-RA,OVC,0.01,0.0,WeatherDisplay:10.37,2013-05-03 09:12:00,
2013-05-03 10:17:00,51.3,46.6,29.90,NNW,344,6.9,6.9,84,0.00,-RA,OVC,0.01,0.0,WeatherDisplay:10.37,2013-05-03 09:17:00,
2013-05-03 10:22:00,51.3,46.3,29.90,NNW,348,3.5,3.5,83,0.00,-RA,OVC,0.01,0.0,WeatherDisplay:10.37,2013-05-03 09:22:00,
2013-05-03 10:27:00,51.2,46.5,29.90,North,353,1.2,1.2,84,0.00,-RA,OVC,0.01,0.0,WeatherDisplay:10.37,2013-05-03 09:27:00,
2013-05-03 10:32:00,51.2,46.8,29.90,ENE,74,1.2,1.2,85,0.00,-RA,OVC,0.01,0.0,WeatherDisplay:10.37,2013-05-03 09:32:00,
2013-05-03 10:37:00,51.3,46.9,29.90,SSW,212,2.3,2.3,85,0.00,-RA,OVC,0.01,0.0,WeatherDisplay:10.37,2013-05-03 09:37:00,
2013-05-03 10:43:00,51.4,47.0,29.90,SW,217,2.0,2.0,85,0.00,-RA,OVC,0.01,0.0,WeatherDisplay:10.37,2013-05-03 09:43:00,
2013-05-03 10:48:00,51.6,46.9,29.90,ENE,61,3.5,0.0,84,0.00,-RA,OVC,0.01,0.0,WeatherDisplay:10.37,2013-05-03 09:48:00,
2013-05-03 10:53:00,51.7,47.0,29.89,ENE,77,1.2,1.2,84,0.00,-RA,OVC,0.01,0.0,WeatherDisplay:10.37,2013-05-03 09:53:00,
2013-05-03 10:58:00,51.9,47.5,29.89,ESE,102,1.2,1.2,85,0.00,-RA,OVC,0.01,0.0,WeatherDisplay:10.37,2013-05-03 09:58:00,
2013-05-03 11:03:00,51.8,46.8,29.89,SSE,162,3.5,3.5,83,0.00,-RA,OVC,0.01,0.0,WeatherDisplay:10.37,2013-05-03 10:03:00,
2013-05-03 11:08:00,51.7,46.7,29.89,SE,142,4.6,4.6,83,0.00,-RA,OVC,0.01,0.0,WeatherDisplay:10.37,2013-05-03 10:08:00,
2013-05-03 11:13:00,51.5,46.8,29.89,ESE,105,3.5,3.5,84,0.00,-RA,OVC,0.01,0.0,WeatherDisplay:10.37,2013-05-03 10:13:00,
2013-05-03 11:18:00,51.4,47.0,29.89,SE,135,2.3,2.5,85,0.00,-RA,OVC,0.01,0.0,WeatherDisplay:10.37,2013-05-03 10:18:00,
2013-05-03 11:23:00,51.4,46.7,29.89,ESE,110,4.6,4.6,84,0.00,-RA,OVC,0.01,0.0,WeatherDisplay:10.37,2013-05-03 10:23:00,
2013-05-03 11:28:00,51.2,46.8,29.89,SSE,155,5.8,5.8,85,0.00,-RA,OVC,0.01,0.0,WeatherDisplay:10.37,2013-05-03 10:28:00,
2013-05-03 11:33:00,51.1,47.1,29.89,South,170,6.9,6.9,86,0.00,-RA,OVC,0.01,0.0,WeatherDisplay:10.37,2013-05-03 10:33:00,
2013-05-03 11:38:00,50.8,47.1,29.89,SSE,154,4.0,4.0,87,0.00,-RA,OVC,0.01,0.0,WeatherDisplay:10.37,2013-05-03 10:38:00,
2013-05-03 11:43:00,50.6,47.5,29.89,ESE,105,2.3,2.3,89,0.00,-RA,OVC,0.01,0.0,WeatherDisplay:10.37,2013-05-03 10:43:00,
2013-05-03 11:48:00,50.3,47.2,29.89,SW,223,3.5,3.5,89,0.00,-RA,OVC,0.01,0.0,WeatherDisplay:10.37,2013-05-03 10:48:00,
2013-05-03 11:53:00,50.0,46.9,29.89,SE,143,1.2,1.4,89,0.00,-RA,OVC,0.01,0.0,WeatherDisplay:10.37,2013-05-03 10:53:00,
2013-05-03 11:58:00,50.0,46.9,29.88,SW,223,3.5,3.5,89,0.00,-RA,OVC,0.01,0.0,WeatherDisplay:10.37,2013-05-03 10:58:00,
2013-05-03 12:03:00,50.0,46.9,29.88,ESE,120,3.5,3.5,89,0.00,-RA,OVC,0.01,0.0,WeatherDisplay:10.37,2013-05-03 11:03:00,
2013-05-03 12:08:00,50.1,47.0,29.88,SW,226,1.2,1.2,89,0.01,-RA,OVC,0.02,0.0,WeatherDisplay:10.37,2013-05-03 11:08:00,
2013-05-03 12:13:00,50.2,47.4,29.88,NNE,27,3.5,3.5,90,0.01,-RA,OVC,0.02,0.0,WeatherDisplay:10.37,2013-05-03 11:13:00,
2013-05-03 12:18:00,50.3,47.5,29.88,North,354,1.2,1.2,90,0.02,-RA,OVC,0.02,0.0,WeatherDisplay:10.37,2013-05-03 11:18:00,
2013-05-03 12:23:00,50.5,47.7,29.88,SE,124,2.3,2.3,90,0.02,-RA,OVC,0.02,0.0,WeatherDisplay:10.37,2013-05-03 11:23:00,
2013-05-03 12:28:00,50.6,48.1,29.87,South,169,8.1,8.1,91,0.02,-RA,OVC,0.02,0.0,WeatherDisplay:10.37,2013-05-03 11:28:00,
2013-05-03 12:33:00,50.8,48.0,29.87,WSW,242,3.5,3.5,90,0.02,-RA,OVC,0.03,0.0,WeatherDisplay:10.37,2013-05-03 11:33:00,
2013-05-03 12:38:00,51.1,48.6,29.87,SE,141,1.2,1.2,91,0.02,-RA,OVC,0.03,0.0,WeatherDisplay:10.37,2013-05-03 11:38:00,
2013-05-03 12:43:00,51.3,48.5,29.87,North,358,3.5,3.5,90,0.02,-RA,OVC,0.03,0.0,WeatherDisplay:10.37,2013-05-03 11:43:00,
2013-05-03 12:48:00,51.5,48.7,29.86,SE,136,2.3,2.3,90,0.02,-RA,OVC,0.03,0.0,WeatherDisplay:10.37,2013-05-03 11:48:00,
2013-05-03 12:53:00,51.6,48.5,29.86,ESE,103,3.5,3.5,89,0.02,-RA,OVC,0.03,0.0,WeatherDisplay:10.37,2013-05-03 11:53:00,
2013-05-03 12:58:00,51.6,48.2,29.86,NNW,342,2.3,2.3,88,0.03,-RA,OVC,0.04,0.0,WeatherDisplay:10.37,2013-05-03 11:58:00,
2013-05-03 13:03:00,51.6,48.5,29.86,NNE,26,1.2,1.2,89,0.03,-RA,OVC,0.04,0.0,WeatherDisplay:10.37,2013-05-03 12:03:00,
2013-05-03 13:08:00,51.5,48.1,29.86,SSE,150,2.3,2.3,88,0.03,-RA,OVC,0.05,0.0,WeatherDisplay:10.37,2013-05-03 12:08:00,
2013-05-03 13:13:00,51.3,48.2,29.86,SE,129,2.3,2.3,89,0.05,-RA,OVC,0.06,0.0,WeatherDisplay:10.37,2013-05-03 12:13:00,
2013-05-03 13:18:00,51.2,48.1,29.86,SE,135,2.3,2.3,89,0.04,-RA,OVC,0.06,0.0,WeatherDisplay:10.37,2013-05-03 12:18:00,
2013-05-03 13:23:00,51.2,48.4,29.85,SE,129,4.0,4.0,90,0.05,-RA,OVC,0.07,0.0,WeatherDisplay:10.37,2013-05-03 12:23:00,
2013-05-03 13:28:00,51.3,48.5,29.85,SSE,163,2.3,2.3,90,0.06,-RA,OVC,0.08,0.0,WeatherDisplay:10.37,2013-05-03 12:28:00,
2013-05-03 13:33:00,51.3,48.8,29.85,SE,131,6.9,6.9,91,0.05,-RA,OVC,0.08,0.0,WeatherDisplay:10.37,2013-05-03 12:33:00,
2013-05-03 13:38:00,51.4,48.6,29.85,ESE,114,3.5,3.5,90,0.05,-RA,OVC,0.08,0.0,WeatherDisplay:10.37,2013-05-03 12:38:00,
2013-05-03 13:44:00,51.6,48.8,29.85,SSE,165,3.5,3.5,90,0.05,-RA,OVC,0.08,0.0,WeatherDisplay:10.37,2013-05-03 12:44:00,
2013-05-03 13:49:00,51.7,48.9,29.84,NE,44,3.5,3.5,90,0.05,-RA,OVC,0.08,0.0,WeatherDisplay:10.37,2013-05-03 12:49:00,
2013-05-03 13:54:00,51.8,49.0,29.84,SE,136,3.5,3.5,90,0.05,-RA,OVC,0.08,0.0,WeatherDisplay:10.37,2013-05-03 12:54:00,
2013-05-03 13:59:00,51.8,48.7,29.84,NE,40,3.5,3.5,89,0.05,-RA,OVC,0.09,0.0,WeatherDisplay:10.37,2013-05-03 12:59:00,
2013-05-03 14:04:00,51.8,49.0,29.84,SSE,163,3.5,3.5,90,0.05,-RA,OVC,0.09,0.0,WeatherDisplay:10.37,2013-05-03 13:04:00,
2013-05-03 14:09:00,51.9,48.8,29.84,South,179,6.9,6.9,89,0.04,-RA,OVC,0.09,0.0,WeatherDisplay:10.37,2013-05-03 13:09:00,
2013-05-03 14:14:00,52.0,48.9,29.83,ESE,121,2.3,2.3,89,0.02,-RA,OVC,0.09,0.0,WeatherDisplay:10.37,2013-05-03 13:14:00,
2013-05-03 14:19:00,52.1,49.0,29.83,ESE,117,3.5,3.5,89,0.02,-RA,OVC,0.09,0.0,WeatherDisplay:10.37,2013-05-03 13:19:00,
2013-05-03 14:24:00,52.1,49.0,29.83,NNE,15,3.5,4.2,89,0.02,-RA,OVC,0.09,0.0,WeatherDisplay:10.37,2013-05-03 13:24:00,
2013-05-03 14:29:00,52.1,49.0,29.82,SW,225,5.8,5.8,89,0.01,-RA,OVC,0.09,0.0,WeatherDisplay:10.37,2013-05-03 13:29:00,
2013-05-03 14:34:00,52.0,48.9,29.82,South,172,3.5,3.5,89,0.02,-RA,OVC,0.09,0.0,WeatherDisplay:10.37,2013-05-03 13:34:00,
2013-05-03 14:39:00,52.1,49.0,29.82,WSW,253,4.6,4.6,89,0.02,-RA,OVC,0.09,0.0,WeatherDisplay:10.37,2013-05-03 13:39:00,
2013-05-03 14:44:00,52.0,48.9,29.82,East,79,6.9,6.9,89,0.02,-RA,OVC,0.09,0.0,WeatherDisplay:10.37,2013-05-03 13:44:00,
2013-05-03 14:49:00,51.9,49.1,29.82,SE,139,3.5,3.5,90,0.02,-RA,OVC,0.10,0.0,WeatherDisplay:10.37,2013-05-03 13:49:00,
2013-05-03 14:54:00,51.8,49.0,29.81,East,84,4.6,4.6,90,0.02,-RA,OVC,0.11,0.0,WeatherDisplay:10.37,2013-05-03 13:54:00,
2013-05-03 14:59:00,51.7,48.9,29.81,SE,146,4.6,4.6,90,0.02,-RA,OVC,0.11,0.0,WeatherDisplay:10.37,2013-05-03 13:59:00,
2013-05-03 15:04:00,51.7,48.9,29.81,ESE,111,3.0,3.0,90,0.02,-RA,OVC,0.11,0.0,WeatherDisplay:10.37,2013-05-03 14:04:00,
2013-05-03 15:09:00,51.6,48.8,29.81,ESE,102,3.5,3.5,90,0.03,-RA,OVC,0.12,0.0,WeatherDisplay:10.37,2013-05-03 14:09:00,
2013-05-03 15:14:00,51.6,49.1,29.80,SSW,207,1.2,1.2,91,0.03,-RA,OVC,0.12,0.0,WeatherDisplay:10.37,2013-05-03 14:14:00,
2013-05-03 15:19:00,51.5,48.7,29.80,WSW,248,2.3,2.3,90,0.04,-RA,OVC,0.13,0.0,WeatherDisplay:10.37,2013-05-03 14:19:00,
2013-05-03 15:24:00,51.3,48.5,29.79,ESE,110,8.1,8.1,90,0.04,-RA,OVC,0.13,0.0,WeatherDisplay:10.37,2013-05-03 14:24:00,
2013-05-03 15:29:00,51.2,48.4,29.79,SE,138,4.6,4.6,90,0.04,-RA,OVC,0.13,0.0,WeatherDisplay:10.37,2013-05-03 14:29:00,
2013-05-03 15:34:00,51.0,48.2,29.79,SSE,162,4.6,4.6,90,0.04,-RA,OVC,0.13,0.0,WeatherDisplay:10.37,2013-05-03 14:34:00,
2013-05-03 15:39:00,50.9,48.1,29.79,SSW,210,8.1,8.1,90,0.05,-RA,OVC,0.14,0.0,WeatherDisplay:10.37,2013-05-03 14:39:00,
2013-05-03 15:44:00,50.9,48.1,29.78,SSE,165,5.0,5.0,90,0.05,-RA,OVC,0.14,0.0,WeatherDisplay:10.37,2013-05-03 14:44:00,
2013-05-03 15:49:00,50.9,48.4,29.78,SE,127,4.6,4.6,91,0.04,-RA,OVC,0.14,0.0,WeatherDisplay:10.37,2013-05-03 14:49:00,
2013-05-03 15:54:00,50.8,48.0,29.77,South,177,5.8,5.8,90,0.04,-RA,OVC,0.15,0.0,WeatherDisplay:10.37,2013-05-03 14:54:00,
2013-05-03 15:59:00,50.9,48.1,29.77,SE,143,4.6,4.6,90,0.04,-RA,OVC,0.15,0.0,WeatherDisplay:10.37,2013-05-03 14:59:00,
2013-05-03 16:04:00,50.9,48.1,29.77,SSE,155,4.6,4.6,90,0.05,-RA,OVC,0.16,0.0,WeatherDisplay:10.37,2013-05-03 15:04:00,
2013-05-03 16:09:00,50.9,48.1,29.77,SSW,207,6.9,6.9,90,0.04,-RA,OVC,0.16,0.0,WeatherDisplay:10.37,2013-05-03 15:09:00,
2013-05-03 16:14:00,50.9,48.1,29.76,East,100,6.9,6.9,90,0.04,-RA,OVC,0.16,0.0,WeatherDisplay:10.37,2013-05-03 15:14:00,
2013-05-03 16:19:00,51.0,48.2,29.76,SSE,154,9.2,9.2,90,0.03,-RA,OVC,0.16,0.0,WeatherDisplay:10.37,2013-05-03 15:19:00,
2013-05-03 16:24:00,51.0,48.5,29.75,ESE,114,6.9,6.9,91,0.04,-RA,OVC,0.17,0.0,WeatherDisplay:10.37,2013-05-03 15:24:00,
2013-05-03 16:29:00,51.0,48.2,29.75,SE,129,10.4,10.4,90,0.04,-RA,OVC,0.17,0.0,WeatherDisplay:10.37,2013-05-03 15:29:00,
2013-05-03 16:34:00,51.0,48.5,29.75,ESE,121,2.3,2.3,91,0.04,-RA,OVC,0.17,0.0,WeatherDisplay:10.37,2013-05-03 15:34:00,
2013-05-03 16:39:00,51.0,48.5,29.75,ENE,75,4.0,4.0,91,0.03,-RA,OVC,0.17,0.0,WeatherDisplay:10.37,2013-05-03 15:39:00,
2013-05-03 16:44:00,51.0,48.5,29.74,ESE,102,3.5,3.5,91,0.03,-RA,OVC,0.17,0.0,WeatherDisplay:10.37,2013-05-03 15:44:00,
2013-05-03 16:49:00,51.0,48.5,29.74,SE,131,3.5,3.5,91,0.04,-RA,OVC,0.18,0.0,WeatherDisplay:10.37,2013-05-03 15:49:00,
2013-05-03 16:54:00,51.1,48.6,29.73,ESE,107,8.1,8.1,91,0.03,-RA,OVC,0.18,0.0,WeatherDisplay:10.37,2013-05-03 15:54:00,
2013-05-03 16:59:00,51.1,48.6,29.73,East,101,6.0,6.0,91,0.04,-RA,OVC,0.19,0.0,WeatherDisplay:10.37,2013-05-03 15:59:00,
2013-05-03 17:04:00,51.1,48.6,29.73,East,84,3.5,3.5,91,0.03,-RA,OVC,0.19,0.0,WeatherDisplay:10.37,2013-05-03 16:04:00,
2013-05-03 17:09:00,51.1,48.6,29.72,SE,146,8.1,8.1,91,0.04,-RA,OVC,0.20,0.0,WeatherDisplay:10.37,2013-05-03 16:09:00,
2013-05-03 17:14:00,51.1,48.6,29.72,SSE,165,2.3,2.3,91,0.04,-RA,OVC,0.20,0.0,WeatherDisplay:10.37,2013-05-03 16:14:00,
2013-05-03 17:19:00,51.1,48.6,29.72,WSW,256,5.8,5.8,91,0.05,-RA,OVC,0.20,0.0,WeatherDisplay:10.37,2013-05-03 16:19:00,
2013-05-03 17:24:00,51.2,48.7,29.71,SSE,167,6.9,6.9,91,0.05,-RA,OVC,0.21,0.0,WeatherDisplay:10.37,2013-05-03 16:24:00,
2013-05-03 17:29:00,51.2,48.7,29.71,SE,132,6.0,6.0,91,0.05,-RA,OVC,0.21,0.0,WeatherDisplay:10.37,2013-05-03 16:29:00,
2013-05-03 17:34:00,51.2,48.7,29.71,ESE,122,6.9,6.9,91,0.04,-RA,OVC,0.22,0.0,WeatherDisplay:10.37,2013-05-03 16:34:00,
2013-05-03 17:39:00,51.3,48.8,29.70,SE,129,3.5,3.5,91,0.05,-RA,OVC,0.22,0.0,WeatherDisplay:10.37,2013-05-03 16:39:00,
2013-05-03 17:44:00,51.4,48.9,29.70,SE,141,10.4,10.4,91,0.05,-RA,OVC,0.22,0.0,WeatherDisplay:10.37,2013-05-03 16:44:00,
2013-05-03 17:49:00,51.4,48.9,29.70,SSE,160,5.8,5.8,91,0.05,-RA,OVC,0.23,0.0,WeatherDisplay:10.37,2013-05-03 16:49:00,
2013-05-03 17:54:00,51.4,48.9,29.70,SSW,202,3.5,3.5,91,0.06,-RA,OVC,0.24,0.0,WeatherDisplay:10.37,2013-05-03 16:54:00,
2013-05-03 17:59:00,51.3,48.8,29.70,East,95,3.5,3.5,91,0.05,-RA,OVC,0.24,0.0,WeatherDisplay:10.37,2013-05-03 16:59:00,
2013-05-03 18:04:00,51.3,48.8,29.69,SSW,208,3.5,3.5,91,0.06,-RA,OVC,0.24,0.0,WeatherDisplay:10.37,2013-05-03 17:04:00,
2013-05-03 18:09:00,51.3,48.8,29.69,SSE,158,4.6,4.6,91,0.05,-RA,OVC,0.25,0.0,WeatherDisplay:10.37,2013-05-03 17:09:00,
2013-05-03 18:14:00,51.2,48.7,29.69,SE,125,2.3,2.3,91,0.06,-RA,OVC,0.26,0.0,WeatherDisplay:10.37,2013-05-03 17:14:00,
2013-05-03 18:19:00,51.2,49.0,29.68,South,176,1.2,1.2,92,0.06,-RA,OVC,0.27,0.0,WeatherDisplay:10.37,2013-05-03 17:19:00,
2013-05-03 18:24:00,51.1,48.9,29.68,ESE,114,6.0,6.0,92,0.06,-RA,OVC,0.28,0.0,WeatherDisplay:10.37,2013-05-03 17:24:00,
2013-05-03 18:29:00,51.1,48.9,29.68,North,4,4.6,4.6,92,0.06,-RA,OVC,0.28,0.0,WeatherDisplay:10.37,2013-05-03 17:29:00,
2013-05-03 18:34:00,51.2,49.0,29.68,South,191,3.5,3.6,92,0.06,-RA,OVC,0.28,0.0,WeatherDisplay:10.37,2013-05-03 17:34:00,
2013-05-03 18:39:00,51.2,49.0,29.68,NNW,328,3.5,3.5,92,0.06,-RA,OVC,0.28,0.0,WeatherDisplay:10.37,2013-05-03 17:39:00,
2013-05-03 18:44:00,51.2,49.0,29.68,NNE,32,2.3,2.3,92,0.07,-RA,OVC,0.29,0.0,WeatherDisplay:10.37,2013-05-03 17:44:00,
2013-05-03 18:49:00,51.2,48.7,29.68,SW,214,3.5,3.5,91,0.06,-RA,OVC,0.30,0.0,WeatherDisplay:10.37,2013-05-03 17:49:00,
2013-05-03 18:54:00,51.1,48.6,29.68,SE,139,2.0,2.0,91,0.06,-RA,OVC,0.30,0.0,WeatherDisplay:10.37,2013-05-03 17:54:00,
2013-05-03 18:59:00,51.0,48.5,29.67,NE,41,1.2,1.2,91,0.07,-RA,OVC,0.31,0.0,WeatherDisplay:10.37,2013-05-03 17:59:00,
2013-05-03 19:04:00,50.9,48.4,29.67,NNE,18,2.3,2.3,91,0.07,-RA,OVC,0.31,0.0,WeatherDisplay:10.37,2013-05-03 18:04:00,
2013-05-03 19:09:00,50.7,48.2,29.67,East,88,1.2,1.2,91,0.08,-RA,OVC,0.32,0.0,WeatherDisplay:10.37,2013-05-03 18:09:00,
2013-05-03 19:14:00,50.6,48.1,29.67,SSW,205,1.2,0.0,91,0.07,-RA,OVC,0.33,0.0,WeatherDisplay:10.37,2013-05-03 18:14:00,
2013-05-03 19:19:00,50.5,48.3,29.66,South,188,1.2,1.2,92,0.07,-RA,OVC,0.34,0.0,WeatherDisplay:10.37,2013-05-03 18:19:00,
2013-05-03 19:24:00,50.3,48.1,29.66,ESE,120,3.5,3.5,92,0.07,-RA,OVC,0.34,0.0,WeatherDisplay:10.37,2013-05-03 18:24:00,
2013-05-03 19:29:00,50.3,48.1,29.66,SSE,164,1.2,1.2,92,0.07,-RA,OVC,0.35,0.0,WeatherDisplay:10.37,2013-05-03 18:29:00,
2013-05-03 19:34:00,50.1,47.6,29.66,ESE,106,5.8,5.8,91,0.07,-RA,OVC,0.35,0.0,WeatherDisplay:10.37,2013-05-03 18:34:00,
2013-05-03 19:39:00,50.0,47.5,29.65,NW,304,6.9,6.9,91,0.06,-RA,OVC,0.35,0.0,WeatherDisplay:10.37,2013-05-03 18:39:00,
2013-05-03 19:44:00,50.0,47.5,29.65,ESE,110,3.5,3.5,91,0.06,-RA,OVC,0.35,0.0,WeatherDisplay:10.37,2013-05-03 18:44:00,
2013-05-03 19:49:00,50.0,47.5,29.65,SSE,167,5.8,5.8,91,0.06,-RA,OVC,0.35,0.0,WeatherDisplay:10.37,2013-05-03 18:49:00,
2013-05-03 19:55:00,50.0,47.5,29.65,WSW,257,10.4,10.4,91,0.06,-RA,OVC,0.35,0.0,WeatherDisplay:10.37,2013-05-03 18:55:00,
2013-05-03 20:00:00,50.0,47.5,29.65,SSE,162,8.1,8.1,91,0.05,-RA,OVC,0.35,0.0,WeatherDisplay:10.37,2013-05-03 19:00:00,
2013-05-03 20:05:00,49.9,47.4,29.66,North,9,4.0,4.0,91,0.05,RA,OVC,0.36,0.0,WeatherDisplay:10.37,2013-05-03 19:05:00,
2013-05-03 20:10:00,49.7,47.2,29.66,ENE,61,3.5,3.5,91,0.05,RA,OVC,0.37,0.0,WeatherDisplay:10.37,2013-05-03 19:10:00,
2013-05-03 20:15:00,49.3,46.2,29.66,NNE,19,4.0,4.0,89,0.05,RA,OVC,0.38,0.0,WeatherDisplay:10.37,2013-05-03 19:15:00,
2013-05-03 20:20:00,49.0,45.6,29.67,NW,325,2.3,2.3,88,0.04,RA,OVC,0.38,0.0,WeatherDisplay:10.37,2013-05-03 19:20:00,
2013-05-03 20:25:00,48.7,45.3,29.67,NNW,328,5.8,5.8,88,0.04,BKN,OVC,0.38,0.0,WeatherDisplay:10.37,2013-05-03 19:25:00,
2013-05-03 20:30:00,48.5,45.1,29.67,NNE,15,3.5,3.5,88,0.03,BKN,OVC,0.38,0.0,WeatherDisplay:10.37,2013-05-03 19:30:00,
2013-05-03 20:35:00,48.4,45.0,29.67,North,8,3.5,3.5,88,0.03,-RA,OVC,0.38,0.0,WeatherDisplay:10.37,2013-05-03 19:35:00,
2013-05-03 20:40:00,48.3,44.9,29.67,West,276,3.5,3.5,88,0.03,-RA,OVC,0.38,0.0,WeatherDisplay:10.37,2013-05-03 19:40:00,
2013-05-03 20:45:00,48.0,44.3,29.68,NW,321,3.5,3.5,87,0.03,-RA,OVC,0.38,0.0,WeatherDisplay:10.37,2013-05-03 19:45:00,
2013-05-03 20:50:00,47.8,43.5,29.68,North,4,4.6,4.6,85,0.02,-RA,OVC,0.38,0.0,WeatherDisplay:10.37,2013-05-03 19:50:00,
2013-05-03 20:55:00,47.5,43.5,29.69,NNE,18,2.3,2.3,86,0.02,-RA,OVC,0.38,0.0,WeatherDisplay:10.37,2013-05-03 19:55:00,
2013-05-03 21:00:00,47.3,43.3,29.68,NNE,29,2.3,2.3,86,0.02,-RA,OVC,0.38,0.0,WeatherDisplay:10.37,2013-05-03 20:00:00,
2013-05-03 21:05:00,47.1,43.4,29.69,NE,43,1.2,1.6,87,0.02,-RA,OVC,0.38,0.0,WeatherDisplay:10.37,2013-05-03 20:05:00,
2013-05-03 21:10:00,46.8,42.8,29.69,NW,307,3.5,3.5,86,0.01,-RA,OVC,0.38,0.0,WeatherDisplay:10.37,2013-05-03 20:10:00,
2013-05-03 21:15:00,46.6,42.6,29.69,North,1,2.0,4.0,86,0.00,-RA,OVC,0.38,0.0,WeatherDisplay:10.37,2013-05-03 20:15:00,
2013-05-03 21:20:00,46.3,42.3,29.69,North,4,3.5,3.5,86,0.00,-RA,OVC,0.38,0.0,WeatherDisplay:10.37,2013-05-03 20:20:00,
2013-05-03 21:25:00,46.1,42.1,29.69,North,11,2.3,2.3,86,0.00,-RA,OVC,0.38,0.0,WeatherDisplay:10.37,2013-05-03 20:25:00,
2013-05-03 21:30:00,46.0,42.3,29.70,North,358,1.0,3.0,87,0.00,-RA,OVC,0.38,0.0,WeatherDisplay:10.37,2013-05-03 20:30:00,
2013-05-03 21:35:00,45.9,42.2,29.70,NNE,27,1.2,1.2,87,0.00,-RA,OVC,0.38,0.0,WeatherDisplay:10.37,2013-05-03 20:35:00,
2013-05-03 21:40:00,45.7,42.1,29.70,NNE,16,3.5,3.5,87,0.00,-RA,OVC,0.38,0.0,WeatherDisplay:10.37,2013-05-03 20:40:00,
2013-05-03 21:45:00,45.5,41.6,29.70,NE,35,1.0,4.0,86,0.00,-RA,OVC,0.38,0.0,WeatherDisplay:10.37,2013-05-03 20:45:00,
2013-05-03 21:50:00,45.3,41.3,29.70,ENE,70,1.0,5.0,86,0.00,-RA,OVC,0.38,0.0,WeatherDisplay:10.37,2013-05-03 20:50:00,
2013-05-03 21:55:00,45.1,41.2,29.70,ENE,61,1.0,3.0,86,0.00,-RA,OVC,0.38,0.0,WeatherDisplay:10.37,2013-05-03 20:55:00,
2013-05-03 22:00:00,45.0,41.1,29.70,NNE,28,1.0,3.0,86,0.00,-RA,OVC,0.38,0.0,WeatherDisplay:10.37,2013-05-03 21:00:00,
2013-05-03 22:05:00,44.9,41.3,29.71,NE,43,2.3,2.3,87,0.00,-RA,OVC,0.38,0.0,WeatherDisplay:10.37,2013-05-03 21:05:00,
2013-05-03 22:10:00,44.8,40.9,29.71,NNW,343,4.0,4.0,86,0.00,-RA,OVC,0.38,0.0,WeatherDisplay:10.37,2013-05-03 21:10:00,
2013-05-03 22:15:00,44.7,40.8,29.71,NE,43,3.5,3.5,86,0.00,-RA,OVC,0.38,0.0,WeatherDisplay:10.37,2013-05-03 21:15:00,
2013-05-03 22:20:00,44.7,41.1,29.72,North,8,1.0,3.0,87,0.00,-RA,OVC,0.38,0.0,WeatherDisplay:10.37,2013-05-03 21:20:00,
2013-05-03 22:25:00,44.5,40.6,29.72,NE,39,2.0,5.0,86,0.00,-RA,OVC,0.38,0.0,WeatherDisplay:10.37,2013-05-03 21:25:00,
2013-05-03 22:30:00,44.4,40.5,29.72,ESE,114,3.5,3.5,86,0.00,-RA,OVC,0.38,0.0,WeatherDisplay:10.37,2013-05-03 21:30:00,
2013-05-03 22:35:00,44.3,40.4,29.72,North,4,1.0,6.0,86,0.00,-RA,OVC,0.38,0.0,WeatherDisplay:10.37,2013-05-03 21:35:00,
2013-05-03 22:40:00,44.1,40.2,29.72,North,358,3.5,3.5,86,0.00,-RA,OVC,0.38,0.0,WeatherDisplay:10.37,2013-05-03 21:40:00,
2013-05-03 22:45:00,44.0,40.1,29.71,NNE,20,1.0,4.0,86,0.00,-RA,OVC,0.38,0.0,WeatherDisplay:10.37,2013-05-03 21:45:00,
2013-05-03 22:50:00,43.9,40.0,29.71,NE,34,1.0,3.0,86,0.00,SCT,OVC,0.38,0.0,WeatherDisplay:10.37,2013-05-03 21:50:00,
2013-05-03 22:55:00,43.7,39.5,29.72,NE,52,2.0,3.0,85,0.00,SCT,OVC,0.38,0.0,WeatherDisplay:10.37,2013-05-03 21:55:00,
2013-05-03 23:00:00,43.6,39.4,29.72,NE,56,2.0,4.0,85,0.00,SCT,OVC,0.38,0.0,WeatherDisplay:10.37,2013-05-03 22:00:00,
2013-05-03 23:05:00,43.5,39.6,29.72,NE,45,3.0,6.0,86,0.00,SCT,OVC,0.38,0.0,WeatherDisplay:10.37,2013-05-03 22:05:00,
2013-05-03 23:10:00,43.4,39.2,29.72,NNE,18,3.5,3.5,85,0.00,SCT,OVC,0.38,0.0,WeatherDisplay:10.37,2013-05-03 22:10:00,
2013-05-03 23:15:00,43.3,39.4,29.72,NE,50,2.3,2.3,86,0.00,SCT,OVC,0.38,0.0,WeatherDisplay:10.37,2013-05-03 22:15:00,
2013-05-03 23:20:00,43.2,39.0,29.72,NW,316,3.5,3.5,85,0.00,SCT,OVC,0.38,0.0,WeatherDisplay:10.37,2013-05-03 22:20:00,
2013-05-03 23:25:00,42.9,38.7,29.72,North,11,3.5,3.5,85,0.00,SCT,OVC,0.38,0.0,WeatherDisplay:10.37,2013-05-03 22:25:00,
2013-05-03 23:30:00,42.6,38.4,29.72,SW,226,4.0,4.0,85,0.00,SCT,OVC,0.38,0.0,WeatherDisplay:10.37,2013-05-03 22:30:00,
2013-05-03 23:35:00,42.4,37.9,29.72,NNE,15,3.5,3.5,84,0.00,SCT,OVC,0.38,0.0,WeatherDisplay:10.37,2013-05-03 22:35:00,
2013-05-03 23:40:00,42.3,37.8,29.72,ENE,63,3.5,3.5,84,0.00,SCT,OVC,0.38,0.0,WeatherDisplay:10.37,2013-05-03 22:40:00,
2013-05-03 23:45:00,42.1,37.6,29.72,WSW,255,2.3,2.3,84,0.00,SCT,OVC,0.38,0.0,WeatherDisplay:10.37,2013-05-03 22:45:00,
2013-05-03 23:50:00,41.9,37.7,29.72,East,84,1.2,1.2,85,0.00,SCT,OVC,0.38,0.0,WeatherDisplay:10.37,2013-05-03 22:50:00,
2013-05-03 23:55:00,41.7,37.5,29.72,NNE,27,2.3,2.3,85,0.00,SCT,OVC,0.38,0.0,WeatherDisplay:10.37,2013-05-03 22:55:00,